Theta_e
352 353 353 353 352 352 351 349 349 349 349 348 348 348 348 349 355 358 362 363 356 349 348 347 347 348 347 347 347 347 348 348 349 350 350 351 351 351 352 353 353 353 353 353 352 349 347 346 346 346 347 346 348 353 354 352 350 349 349 350 351 352 352 351 351 350 349 348 347 345 344 344 344 344
352 353 353 353 353 353 352 351 351 350 349 348 347 347 347 347 349 352 357 360 353 348 349 347 347 347 347 348 348 347 348 348 349 350 349 350 351 351 351 352 353 352 352 352 351 350 348 347 346 345 346 345 345 348 351 352 352 351 350 350 350 351 351 351 351 351 349 348 346 345 344 343 343 343
350 352 353 353 353 353 353 352 351 350 350 349 347 346 346 346 347 347 351 356 353 349 350 348 348 348 346 348 349 348 348 348 349 349 350 350 351 351 352 352 353 352 352 351 350 349 348 347 346 345 345 344 342 343 345 347 348 349 349 349 348 349 349 349 348 348 346 345 344 343 342 342 343 343
349 351 353 353 353 353 353 351 351 350 350 350 348 346 346 345 346 346 348 352 353 350 350 349 349 350 349 348 349 349 349 349 349 349 350 350 351 351 352 352 352 352 351 350 350 349 348 347 346 345 344 343 342 341 342 343 343 343 344 343 342 343 344 344 343 343 342 342 341 341 342 342 343 343
349 349 351 353 353 352 353 351 350 349 349 350 349 348 346 346 346 346 347 350 350 349 349 350 349 350 350 349 349 349 349 349 350 350 350 350 351 351 351 351 352 351 351 350 350 350 350 348 347 345 344 343 343 342 342 342 342 342 341 339 339 338 339 340 340 340 340 340 340 340 341 342 343 345
349 349 350 352 353 352 352 351 350 349 349 349 349 349 348 347 346 346 347 349 349 349 349 349 349 350 351 351 350 349 349 349 349 350 350 350 350 350 350 351 351 351 351 351 350 350 350 350 349 347 345 344 343 343 343 343 343 342 340 338 337 337 338 338 338 338 338 339 339 340 341 343 345 345
351 350 350 351 352 352 351 351 351 350 350 349 349 348 348 347 346 346 346 348 349 348 348 349 349 350 350 350 351 350 349 349 349 350 350 349 350 350 351 351 351 351 352 351 351 350 350 351 350 349 347 346 345 344 344 344 343 342 340 337 335 335 336 337 337 337 338 339 339 340 342 344 345 346
350 349 348 349 350 349 349 351 351 351 350 349 349 348 347 347 346 346 347 348 350 349 349 349 349 349 349 349 350 350 349 349 349 349 349 349 349 350 351 352 352 352 352 352 351 350 350 350 351 350 350 349 347 345 344 345 344 342 340 338 336 335 334 335 336 337 338 339 340 342 343 345 346 347
350 348 347 349 349 349 348 349 351 351 349 349 349 348 348 348 347 346 346 347 348 349 350 349 348 349 349 349 349 350 349 349 349 349 349 349 349 350 350 351 352 352 352 352 350 350 350 350 350 351 351 350 350 348 346 345 345 344 342 340 337 336 335 335 336 337 339 341 343 343 345 345 347 347
351 349 349 350 350 349 348 347 349 351 350 348 348 348 348 347 347 346 346 345 346 348 350 350 349 349 349 350 350 350 350 349 349 348 349 349 349 349 349 350 351 352 352 352 351 351 351 351 351 351 351 351 351 350 348 346 344 344 343 341 338 337 337 336 337 338 341 344 346 347 347 348 348 348
350 350 350 350 349 348 348 346 347 349 350 349 348 348 347 347 347 346 346 346 345 346 349 350 350 350 350 350 350 351 351 351 350 350 349 349 349 349 349 349 350 351 352 352 352 353 352 352 352 352 352 352 352 352 351 349 345 343 341 341 339 338 337 337 337 340 343 346 348 349 349 349 348 348
350 349 349 349 349 348 347 346 347 348 350 350 349 348 347 347 347 346 346 347 347 347 348 350 351 350 351 352 352 352 352 352 351 351 350 349 349 349 349 349 348 349 350 351 352 353 352 352 352 352 352 352 353 353 353 351 349 346 342 340 339 338 338 338 338 341 344 347 348 348 348 348 347 347
350 349 349 348 348 348 348 348 350 350 349 349 349 348 347 346 346 346 346 347 348 349 349 350 352 353 352 352 353 354 353 353 352 351 351 350 350 349 349 349 349 349 349 350 350 350 351 351 352 351 351 351 351 351 352 352 352 350 347 343 340 338 337 338 339 341 344 346 347 347 346 345 344 344
350 350 349 349 348 348 349 350 350 350 350 349 348 348 347 346 345 345 345 346 348 350 350 350 351 353 353 353 354 354 354 353 353 353 352 352 351 351 352 351 350 350 350 350 350 350 350 351 352 352 351 351 351 351 351 351 351 350 350 349 346 343 341 339 340 341 343 345 345 345 344 343 342 343
350 349 349 350 350 349 349 350 350 351 349 349 349 348 348 347 347 346 345 346 347 349 351 351 351 351 352 352 353 353 353 352 353 353 353 353 352 352 353 353 352 351 351 352 352 351 351 352 352 352 351 351 351 351 351 351 350 350 350 349 350 348 347 345 343 342 342 343 343 342 342 342 341 342
350 349 349 350 350 350 350 350 351 350 349 349 349 348 348 348 348 349 348 347 347 348 349 351 352 352 352 352 351 352 352 352 352 352 353 354 354 353 353 353 353 352 352 352 352 352 352 352 352 352 351 351 351 351 351 351 351 351 350 350 349 350 349 349 348 347 345 343 343 341 341 340 340 341
351 350 350 350 350 350 350 350 350 350 349 350 350 350 349 349 350 350 350 349 348 348 348 350 352 352 352 352 352 351 352 352 352 352 353 353 354 354 354 354 353 353 353 353 353 354 353 353 354 353 353 352 352 352 352 352 352 351 351 351 351 350 350 350 350 349 348 346 346 345 344 343 341 341
351 350 350 350 350 350 350 351 350 350 349 350 351 351 350 350 350 351 351 351 350 349 349 350 351 351 352 352 353 352 352 352 352 352 352 352 353 353 353 353 352 352 352 353 354 355 354 354 355 355 354 354 354 354 354 353 353 353 352 352 352 351 351 350 349 350 350 349 347 347 346 346 345 344
350 350 350 350 350 350 350 349 350 350 350 350 351 351 351 350 351 351 351 351 351 350 349 349 350 351 351 351 351 352 352 352 352 352 353 353 353 353 352 352 352 353 352 353 354 354 354 353 354 355 354 354 354 354 354 354 354 354 354 353 352 352 351 351 350 350 349 348 346 346 347 347 347 347
350 350 350 350 350 350 350 349 349 350 350 350 350 350 351 352 352 352 353 353 353 352 352 351 350 350 350 350 351 351 352 352 352 353 353 354 354 354 353 353 353 353 353 352 353 354 353 353 353 354 353 353 353 353 354 354 353 353 354 354 354 353 352 352 351 351 350 349 348 348 347 347 347 349
350 350 350 351 350 350 350 350 351 351 351 352 351 351 352 353 352 353 353 353 352 351 351 351 352 353 353 353 354 354 354 354 353 353 353 353 354 354 353 353 353 353 353 352 352 353 353 353 353 353 353 353 354 353 353 353 353 353 354 355 355 354 353 352 352 352 351 351 351 350 349 348 348 350
348 348 349 350 350 350 350 350 351 352 352 353 353 352 352 352 351 352 352 352 351 349 349 352 355 357 356 356 355 355 354 355 355 354 354 354 353 351 351 352 352 351 352 351 352 353 353 353 353 353 353 353 353 353 353 353 353 353 353 353 353 353 352 352 353 353 352 351 351 351 350 350 350 351
347 346 347 347 348 348 349 348 349 351 353 354 353 353 352 351 351 351 352 351 350 349 350 352 355 355 355 355 354 353 353 353 354 354 354 354 353 351 350 350 350 351 351 350 351 352 352 352 352 352 353 352 352 352 351 352 352 352 352 352 352 352 352 352 352 353 353 352 351 351 350 350 351 351
346 345 346 347 347 347 347 348 349 351 353 353 353 353 352 351 350 351 351 350 349 349 351 351 352 353 354 353 353 352 351 351 352 352 352 352 352 351 350 350 350 350 350 350 350 350 351 351 351 351 351 351 351 350 350 351 351 351 351 352 352 352 352 353 353 353 353 353 352 352 351 352 352 352
345 345 346 347 347 347 347 348 349 350 351 351 352 352 352 351 351 351 350 349 349 350 351 351 352 353 353 352 351 351 351 350 350 350 350 351 351 351 350 350 349 349 350 350 350 350 350 350 350 350 350 350 350 350 350 350 350 350 350 351 352 352 352 353 353 352 353 352 353 353 353 353 354 353
346 346 347 348 348 348 347 348 349 349 349 349 349 350 351 351 352 351 349 349 350 351 352 352 352 353 352 351 351 351 350 350 350 349 348 348 347 347 348 348 348 349 349 348 349 349 349 350 350 350 350 350 349 350 349 349 349 349 349 350 350 351 351 352 352 352 352 352 352 352 352 354 354 354
346 346 347 348 348 348 348 348 349 349 348 347 347 348 349 351 351 351 349 349 349 351 352 352 351 351 351 351 350 350 349 349 348 347 347 346 346 346 345 346 347 347 347 347 348 348 349 349 349 349 349 349 349 349 349 349 348 348 348 348 349 349 350 351 352 352 352 352 352 352 352 353 354 354
346 346 347 348 348 348 348 349 349 348 347 346 346 346 347 349 349 350 349 349 348 349 350 350 350 350 350 350 349 348 348 347 347 346 346 345 345 345 344 344 345 345 346 346 346 346 347 348 348 348 348 348 348 348 348 348 348 348 348 348 348 348 348 349 351 352 352 352 352 352 352 352 352 352
346 346 346 347 348 348 348 348 347 346 346 346 346 345 345 346 346 347 347 347 347 348 348 348 349 349 349 348 347 347 347 347 346 346 345 345 345 344 344 344 344 344 344 344 344 345 345 346 347 347 348 348 348 348 348 348 348 348 348 348 348 348 348 348 350 351 351 352 352 352 352 352 352 352
346 346 346 346 346 346 347 348 347 346 346 346 346 345 345 345 345 346 346 346 346 346 347 347 348 348 348 347 347 347 346 346 345 345 344 344 344 343 343 343 343 344 344 345 345 345 345 346 346 347 348 348 348 348 348 348 348 348 347 348 347 347 348 348 348 349 349 350 350 351 351 351 351 352
345 345 344 345 345 345 345 346 347 347 347 347 346 346 346 346 346 346 347 348 347 348 348 347 347 347 347 347 346 346 345 344 344 344 344 343 343 343 343 343 344 344 345 346 346 346 346 346 346 347 347 348 348 348 348 348 348 347 347 347 347 347 347 348 348 348 348 349 348 349 349 348 347 348
341 339 340 343 343 343 344 345 346 346 347 347 346 346 345 345 345 346 347 347 347 347 347 347 346 346 346 346 345 345 344 344 344 343 343 343 343 344 344 344 344 345 346 346 347 347 347 347 347 347 347 347 347 347 347 348 348 348 348 348 347 347 347 348 348 348 348 348 347 346 346 345 344 346
337 336 338 340 340 340 341 342 342 344 345 345 345 345 345 346 348 348 347 347 347 347 347 346 346 346 345 345 344 344 343 343 343 343 343 343 343 344 344 345 346 346 347 347 347 347 347 347 347 347 347 347 347 347 347 347 347 347 347 347 348 347 347 347 347 347 348 347 345 343 344 343 344 345
337 336 337 338 338 339 340 340 341 343 344 343 343 344 346 347 347 347 347 347 348 347 347 346 346 345 344 344 344 343 343 343 343 343 343 344 344 345 345 346 347 347 348 348 348 348 348 348 347 346 346 346 345 345 345 346 347 347 347 347 347 347 347 347 347 347 348 348 345 343 343 343 343 344
338 337 337 337 337 339 340 340 341 342 342 340 340 341 342 342 343 345 345 346 346 346 346 346 345 345 344 343 343 343 343 343 344 344 345 345 345 346 346 347 347 348 348 348 348 348 348 347 346 345 344 344 344 344 344 345 346 346 347 348 348 348 347 347 347 347 347 348 346 344 344 343 343 342
338 339 338 337 338 340 341 340 341 341 341 339 339 340 340 340 341 342 344 345 345 345 346 345 345 345 344 344 344 344 344 344 344 344 345 346 346 346 346 347 347 348 348 348 348 347 347 346 345 344 343 343 344 344 343 344 345 346 347 347 347 348 347 347 346 346 346 347 347 345 344 343 343 342
337 338 338 338 339 341 341 341 340 340 340 340 339 340 340 341 341 341 342 343 344 344 345 346 345 345 345 345 345 344 344 345 345 345 346 346 346 347 347 347 347 347 347 347 347 346 346 345 344 343 343 343 344 344 344 344 345 346 347 347 347 347 347 347 346 345 346 346 347 346 344 343 343 343
336 337 337 338 339 340 341 340 340 340 340 340 340 340 340 341 341 339 339 340 340 341 342 342 342 344 345 345 346 346 345 346 346 346 346 346 347 347 346 346 346 346 346 346 346 346 346 345 343 342 342 343 344 345 344 344 344 344 345 345 346 346 347 346 345 345 346 346 346 346 345 344 344 344
335 336 337 338 339 339 340 340 340 340 340 340 340 340 340 340 339 337 337 338 339 339 338 337 338 341 343 344 345 345 346 347 347 346 346 346 346 347 347 346 346 346 346 345 345 345 344 344 343 342 342 342 342 343 343 343 343 343 343 343 343 344 345 345 345 345 346 345 344 344 344 342 342 343
333 334 335 336 337 338 340 340 341 341 341 341 342 342 342 341 339 338 338 338 338 338 338 337 337 339 341 341 341 342 343 344 343 342 342 341 342 344 344 343 344 344 344 343 344 344 343 344 344 344 343 342 341 342 342 342 342 341 341 341 341 342 343 344 344 344 345 344 343 342 341 339 339 340
333 334 335 335 337 338 339 340 340 341 341 342 342 342 341 341 340 339 339 339 339 339 338 338 338 338 339 340 339 339 340 340 340 340 340 339 339 340 342 343 343 343 341 341 341 343 343 344 345 344 343 342 342 341 342 342 341 340 340 340 341 341 342 343 343 342 343 344 342 341 339 337 337 336
334 336 337 338 338 339 340 339 340 340 340 340 340 339 339 339 339 338 338 338 339 339 338 338 338 337 337 338 337 337 337 338 338 338 339 340 340 340 342 343 342 342 340 340 341 342 342 343 343 343 342 342 342 341 341 341 340 339 339 340 340 340 341 343 344 343 343 344 343 341 338 335 334 333
335 335 336 337 338 338 338 338 337 337 337 337 337 338 337 337 338 338 338 337 337 337 337 337 337 336 336 337 337 337 337 338 337 338 339 340 341 341 341 341 341 340 340 340 340 340 340 341 342 342 342 342 342 341 341 341 340 339 339 340 340 340 340 341 342 342 342 343 344 344 341 338 337 336
335 335 335 335 336 335 335 335 335 335 335 335 335 336 336 336 336 336 336 336 335 335 336 336 337 337 338 338 338 338 338 339 339 339 339 340 341 341 341 340 340 340 339 339 339 339 340 341 341 341 341 341 341 341 340 340 339 339 338 338 339 340 340 340 340 341 342 341 341 341 340 339 339 339
328 328 327 326 326 326 327 328 329 329 330 329 329 329 331 331 331 330 330 331 331 332 333 334 334 336 337 338 339 339 339 339 339 340 340 341 341 340 340 339 339 339 339 339 339 339 340 341 341 340 341 341 341 341 340 340 339 339 339 339 339 339 340 339 339 340 341 341 340 339 339 338 339 339
Wind_Speed
18 18 18 19 20 20 19 19 18 17 18 18 16 15 15 12 5 2 3 4 6 10 12 13 13 13 15 18 21 24 26 26 27 28 27 25 23 22 22 23 23 23 24 24 23 23 23 24 25 25 25 26 25 24 24 24 24 24 24 23 23 22 22 23 23 23 23 22 21 20 19 19 19 19
19 18 19 21 21 20 21 21 19 17 17 17 17 17 17 15 10 7 4 5 8 11 12 14 13 13 15 17 18 21 23 23 25 28 28 26 25 23 23 24 24 24 24 24 24 23 24 24 25 25 25 25 25 24 24 24 23 23 23 24 23 23 23 23 24 23 23 22 21 20 19 19 19 19
21 20 20 22 23 21 21 22 21 20 19 18 18 18 18 16 15 14 9 4 9 13 12 13 15 13 13 15 15 16 18 19 22 26 27 27 26 25 24 24 25 25 24 23 23 23 23 24 25 25 25 25 25 25 25 24 24 24 23 23 24 23 23 23 23 23 22 22 21 20 19 19 18 18
23 21 19 22 25 23 21 22 21 21 21 20 19 18 18 18 18 20 16 7 9 16 15 13 14 12 12 14 14 14 15 16 19 24 27 27 26 26 26 25 25 25 25 24 23 23 23 23 24 25 25 25 25 25 25 25 25 25 25 24 24 24 23 23 23 23 22 21 20 20 19 18 18 18
25 22 20 20 24 25 23 21 22 23 22 21 21 19 19 19 19 21 20 13 11 16 17 14 13 12 11 14 15 14 15 15 17 21 25 27 27 26 26 24 24 25 25 24 24 24 23 23 24 24 25 26 26 25 25 25 25 25 26 25 24 24 24 24 23 23 22 22 21 20 19 19 19 18
23 22 22 19 19 23 25 23 21 22 22 23 23 23 21 22 23 23 23 19 14 14 16 16 15 14 14 15 16 15 16 17 17 18 21 24 25 25 25 24 24 24 24 25 25 26 25 25 24 24 25 26 26 26 26 26 26 26 26 25 25 25 24 24 24 23 23 22 22 21 20 20 20 20
19 20 23 21 17 18 22 24 23 21 22 22 23 23 21 20 21 24 25 23 18 15 17 18 17 17 16 17 17 16 17 18 18 18 19 20 21 23 24 25 26 25 25 25 26 27 27 27 26 26 26 26 27 27 27 27 27 27 27 26 26 25 25 25 25 24 24 23 23 22 22 22 22 21
18 18 19 19 18 18 18 19 20 19 20 21 20 20 18 16 16 18 22 24 22 19 17 18 19 19 18 18 18 18 18 19 20 21 20 19 20 21 24 26 27 27 26 26 26 27 27 28 27 27 27 27 27 28 28 29 29 28 28 27 26 26 26 26 26 25 25 25 24 24 24 24 24 23
18 17 18 21 23 22 21 21 20 18 17 18 17 16 15 13 12 12 14 18 21 21 20 20 20 20 19 19 18 18 18 18 20 22 22 21 20 20 22 24 26 26 26 25 25 26 27 28 28 29 28 28 28 28 29 29 30 30 30 29 28 28 28 27 27 27 26 26 25 25 25 25 25 25
18 16 18 22 22 20 20 22 22 19 17 17 17 16 15 13 11 11 10 12 17 21 24 24 23 21 21 21 20 18 18 18 19 21 22 22 21 21 21 22 23 24 23 23 23 23 25 27 28 30 30 30 29 29 29 29 30 31 31 30 30 30 29 29 29 29 28 28 27 27 27 27 27 27
21 18 17 18 19 19 20 21 23 20 19 19 19 19 19 17 15 14 12 11 14 19 24 25 25 24 23 23 22 20 18 18 18 19 21 22 23 23 22 22 23 23 22 22 22 22 23 24 26 27 29 30 31 30 30 30 30 31 31 31 31 31 31 31 31 31 30 30 29 29 28 28 28 28
24 23 21 19 19 21 23 24 25 22 19 20 21 21 21 21 20 18 16 13 13 16 21 24 25 25 23 22 22 19 17 16 17 18 20 22 24 24 23 23 23 23 24 24 24 24 25 25 25 25 26 28 30 30 31 31 31 32 32 32 33 32 33 33 33 33 32 32 31 31 30 29 29 29
24 25 25 24 23 24 26 27 25 22 20 20 22 22 22 22 22 21 18 16 13 13 17 22 22 21 20 20 20 19 18 19 19 19 19 21 23 23 24 25 24 23 24 25 26 27 27 28 28 28 29 29 29 30 31 32 32 33 33 33 34 34 34 34 34 34 34 34 33 32 32 31 30 30
23 24 25 27 27 27 27 27 25 23 21 21 22 23 22 22 23 22 21 19 15 11 12 17 19 17 17 21 21 21 22 22 22 20 18 20 22 20 20 22 25 26 25 26 28 30 29 30 30 30 31 32 31 31 32 32 33 33 33 34 34 35 35 35 36 36 36 35 35 34 33 33 32 32
23 23 24 25 27 27 27 26 26 24 22 22 23 24 23 23 24 25 24 24 21 15 11 13 15 16 18 22 24 24 24 23 22 21 20 21 21 18 15 16 21 25 25 24 27 30 30 29 31 32 33 33 33 34 34 34 34 34 35 35 36 36 36 37 37 37 37 37 36 36 35 35 34 34
25 24 24 25 25 26 26 25 24 23 23 22 23 24 24 24 25 26 27 26 24 19 14 13 14 15 18 20 22 23 22 22 22 21 21 21 21 20 18 17 20 24 24 22 23 28 29 28 30 32 33 33 34 35 36 37 37 37 37 37 37 37 37 38 39 39 38 38 37 37 37 37 37 36
27 27 26 26 25 26 26 25 24 23 22 21 21 22 23 24 24 24 26 27 26 23 19 17 17 19 19 19 20 20 19 19 19 19 20 21 21 21 22 23 25 26 25 22 21 25 29 28 28 31 33 33 33 35 36 37 37 38 39 39 39 39 39 39 40 41 40 39 38 39 39 39 39 38
28 29 29 28 28 27 27 27 26 25 23 21 19 19 20 23 24 24 25 27 28 26 24 23 23 24 22 21 21 20 19 19 18 19 20 21 21 22 24 26 28 27 26 24 20 21 27 28 26 30 33 32 33 35 36 36 37 37 39 39 40 40 40 40 41 41 41 40 39 39 40 40 40 39
29 30 30 30 29 29 29 29 28 26 25 23 21 20 21 23 25 26 27 27 27 27 28 28 28 28 26 25 24 24 23 22 22 21 21 21 22 23 24 25 27 27 27 25 20 19 27 29 26 29 33 32 32 34 35 36 37 38 39 39 39 40 40 40 41 41 42 41 40 39 39 39 39 38
28 30 31 30 29 29 30 30 29 26 24 24 23 24 25 25 25 26 27 25 24 24 25 26 28 29 29 27 25 25 25 25 24 23 22 22 21 21 20 22 26 27 26 25 22 22 28 30 26 29 33 32 32 34 35 36 38 39 39 39 39 39 40 40 41 42 43 44 43 42 41 40 39 37
30 32 32 30 30 30 30 29 27 24 24 26 27 27 28 27 26 27 27 26 25 24 24 25 25 24 24 22 21 21 21 22 22 21 21 23 22 19 16 16 21 25 23 23 23 23 27 30 27 27 31 31 31 33 35 37 39 39 40 40 40 41 41 42 43 43 44 44 44 44 44 42 40 37
31 33 32 30 31 33 32 29 26 23 24 28 29 28 27 25 26 29 30 28 26 25 24 23 22 21 20 20 21 21 21 21 22 22 24 25 23 20 16 16 19 22 23 24 22 21 25 29 27 25 26 28 31 33 35 37 38 38 40 41 42 43 44 44 45 44 44 44 44 44 44 43 41 39
31 32 33 32 32 33 33 31 28 25 27 30 30 27 26 26 28 31 29 26 25 24 23 22 22 21 21 22 22 22 22 23 24 25 27 27 25 23 22 20 16 14 17 22 21 20 23 26 26 24 18 16 22 29 31 33 35 37 39 40 42 43 44 45 46 46 45 44 44 44 44 44 43 42
28 29 32 33 33 33 32 29 26 25 28 31 29 27 27 29 31 30 27 26 26 25 23 23 22 21 21 21 22 22 23 22 23 24 25 25 25 25 25 24 19 16 19 22 20 20 22 22 24 25 20 13 16 24 27 29 31 33 34 36 39 41 42 43 45 46 46 46 46 45 45 45 45 44
25 27 30 32 31 30 29 29 26 26 30 31 29 29 30 31 29 27 26 27 26 24 24 23 22 22 22 22 23 23 24 24 24 25 26 26 26 27 27 26 23 24 26 27 24 23 23 23 23 25 24 20 20 24 27 29 32 33 32 33 35 37 39 40 43 45 46 47 47 46 46 47 46 46
26 27 29 31 29 27 27 27 26 26 29 31 31 32 32 31 28 26 25 24 23 23 23 23 22 23 23 23 24 25 26 27 28 29 30 30 29 30 32 31 29 29 31 30 27 24 23 24 23 23 22 21 21 25 27 29 31 33 33 33 35 36 37 38 41 44 46 47 48 47 47 47 48 47
28 28 29 29 29 27 26 26 24 23 25 28 30 32 33 32 29 27 26 24 22 22 22 22 23 24 24 25 26 27 28 29 30 31 31 30 30 30 32 32 33 35 35 33 30 28 27 26 25 24 24 23 21 21 22 26 29 30 31 33 35 36 38 39 40 43 45 46 47 47 46 47 48 46
28 28 27 26 25 25 25 25 23 21 22 24 26 29 30 31 30 29 28 27 24 23 22 22 23 25 26 27 27 28 29 30 30 30 30 30 29 30 31 32 33 34 34 33 32 32 31 31 30 29 29 29 25 20 20 25 29 30 31 33 35 36 38 39 41 43 44 44 45 46 46 47 46 44
29 29 29 27 25 24 24 24 23 22 21 22 25 27 28 29 30 30 30 28 25 23 23 24 25 27 28 28 28 28 28 28 28 29 29 30 30 30 30 32 32 32 32 31 31 31 31 33 33 31 31 33 31 28 27 27 29 32 32 32 33 36 37 38 41 43 42 42 44 46 47 47 47 46
30 30 30 28 26 25 25 25 24 23 22 22 24 27 28 29 30 30 30 28 26 26 26 27 28 30 30 28 28 27 27 28 29 29 29 30 30 29 29 29 30 30 28 28 28 28 29 32 33 32 32 34 35 35 34 30 30 34 35 33 33 34 33 35 39 41 42 42 43 44 47 48 47 47
28 29 29 29 28 27 26 25 25 25 24 23 23 25 25 26 26 26 26 26 27 29 29 29 30 30 29 27 27 27 27 28 29 29 29 28 28 28 27 26 26 27 27 27 26 26 27 30 31 32 33 33 34 36 37 34 33 35 35 34 34 32 31 32 34 38 42 43 42 42 44 44 43 44
22 23 23 25 25 24 23 23 22 22 22 23 23 24 25 24 21 19 20 22 25 27 28 28 28 28 27 27 28 28 27 28 29 29 28 27 28 28 25 23 23 24 24 25 26 26 26 28 29 30 32 33 34 35 35 35 36 36 35 34 34 35 36 36 34 36 39 39 38 38 40 40 41 43
12 14 16 15 16 18 20 20 20 20 20 20 22 24 26 25 23 21 21 23 27 29 28 28 29 28 27 28 28 26 25 27 29 28 27 27 27 26 24 23 23 23 22 23 25 26 26 27 28 28 30 32 34 35 35 35 36 36 35 33 31 32 37 39 38 37 37 35 33 32 34 37 40 43
4 10 15 13 13 15 16 16 17 17 15 15 18 19 20 21 22 23 25 27 30 30 30 30 31 29 28 28 26 25 25 27 28 28 28 28 26 24 23 23 24 24 23 23 24 25 26 27 27 26 28 30 32 34 35 35 36 37 37 35 32 32 35 38 38 38 37 36 33 29 29 34 40 43
4 9 14 14 13 14 13 13 15 15 13 16 20 20 17 16 17 20 23 27 29 30 29 30 30 29 28 28 27 26 27 28 27 26 26 26 26 25 25 24 24 24 23 22 24 25 24 24 24 23 23 23 24 27 30 31 32 35 37 35 34 34 35 36 37 37 37 36 35 31 29 31 37 41
9 11 13 14 13 13 13 16 17 16 17 20 22 18 16 17 18 19 21 23 25 28 29 29 29 29 29 30 30 29 29 28 26 24 24 24 25 26 25 25 25 25 24 24 26 26 24 23 22 18 13 10 10 14 21 26 26 28 31 33 33 33 34 35 35 35 36 36 35 31 28 30 36 41
12 13 13 14 14 13 15 18 18 17 18 21 20 17 17 21 24 24 22 21 22 26 29 29 30 30 30 30 30 30 29 27 26 25 24 24 24 24 23 23 24 24 24 25 26 26 23 21 20 17 11 6 4 8 16 24 25 24 25 30 33 33 33 33 32 31 34 36 36 33 32 33 36 40
15 14 13 14 15 17 18 19 19 19 21 22 21 20 22 25 25 24 23 22 22 23 24 26 28 30 31 31 30 29 28 27 27 27 26 25 24 24 23 23 23 23 23 24 25 25 23 20 20 19 14 6 3 6 11 17 21 24 25 26 30 33 33 31 29 29 32 35 36 37 37 37 38 39
17 16 14 15 17 19 20 20 20 20 21 21 20 21 22 21 20 21 24 25 23 21 22 24 27 27 26 26 26 26 27 26 25 24 25 24 24 24 24 23 21 20 20 21 23 23 22 21 21 21 19 14 11 14 16 18 24 32 33 30 29 31 32 31 31 32 33 33 32 31 29 26 27 31
15 14 15 16 17 18 19 20 19 20 20 20 20 19 18 17 17 21 24 23 21 21 23 26 26 23 21 20 19 19 20 21 20 21 22 22 21 22 22 20 19 18 18 20 22 22 22 23 25 24 22 20 19 22 25 25 28 32 33 28 23 24 26 28 32 34 32 27 25 24 21 18 18 21
14 14 15 16 17 18 19 20 19 19 19 18 17 15 16 18 20 21 21 20 19 21 24 26 26 24 24 23 18 13 11 14 18 21 23 23 22 22 20 18 19 20 18 18 20 21 23 26 27 25 22 20 19 18 17 14 16 22 28 27 22 19 21 24 28 30 28 22 23 21 17 16 19 21
12 13 14 15 16 16 17 18 17 17 16 15 14 13 14 16 16 15 15 16 18 20 22 23 23 23 24 23 18 13 12 14 18 20 21 22 22 21 19 19 20 20 17 17 21 26 29 29 27 24 21 19 17 12 7 6 10 18 27 30 26 22 21 21 19 20 22 24 25 20 13 12 12 13
11 12 13 12 13 13 13 13 14 12 10 10 10 10 10 10 9 8 9 11 12 14 16 18 19 20 21 21 19 16 16 18 19 20 21 22 21 20 19 20 21 20 20 22 27 30 30 28 27 25 22 19 17 14 11 12 15 20 25 29 28 26 24 21 15 12 14 20 25 25 23 19 13 9
8 8 8 8 9 8 8 8 8 6 4 4 3 3 3 2 1 1 2 3 5 6 8 10 12 14 16 18 17 16 16 18 19 20 21 21 20 19 20 21 22 22 22 23 25 26 26 26 25 22 20 19 19 17 15 16 17 19 22 26 27 27 25 21 16 12 9 11 16 19 22 24 19 15
18 15 13 12 10 9 8 7 8 8 8 8 7 7 7 6 6 6 5 3 2 2 3 4 7 8 10 13 14 15 15 16 17 18 19 19 19 19 20 20 21 21 22 21 21 22 23 23 21 19 18 20 20 19 19 18 18 19 21 22 24 24 23 19 14 11 8 8 12 12 13 17 18 16
Wind_Direction
247 247 248 248 250 249 246 243 241 241 242 238 235 234 226 214 202 219 249 247 241 243 244 245 246 242 239 243 244 243 244 245 243 239 237 239 242 242 240 240 241 241 241 242 243 244 243 243 244 244 245 247 246 243 244 245 245 246 246 245 245 244 244 244 245 247 249 250 251 251 252 251 251 252
248 247 247 248 249 249 245 243 242 240 241 240 236 235 232 224 214 208 220 250 247 242 240 244 252 251 240 238 241 240 240 241 240 239 238 238 241 244 245 243 243 243 243 244 244 245 244 243 243 244 244 246 246 243 242 243 243 244 245 245 244 243 243 243 244 246 248 250 251 252 252 252 253 254
249 246 249 248 247 248 247 246 247 245 245 247 242 234 231 233 235 230 219 237 255 245 243 247 252 255 244 238 242 242 239 237 236 237 238 239 241 246 248 247 246 246 246 245 244 245 245 245 244 244 244 245 246 245 244 243 243 244 244 244 244 243 243 244 245 247 248 250 251 252 253 253 253 254
248 246 252 251 245 246 249 249 249 249 248 248 243 238 235 235 242 239 226 218 247 244 245 251 251 253 248 240 242 246 243 238 235 236 238 241 243 246 251 251 248 247 248 246 245 245 246 245 245 245 245 245 246 246 245 245 245 245 246 246 246 246 246 247 247 248 249 250 250 251 252 252 252 252
243 245 254 256 249 245 248 252 250 247 248 247 242 241 239 239 245 242 227 219 238 243 243 245 244 245 246 241 242 246 245 238 235 237 239 241 244 247 251 251 246 245 247 247 246 246 247 247 247 246 246 246 246 246 246 246 246 246 247 248 248 248 249 249 249 249 249 248 249 249 249 248 248 249
242 247 251 254 254 247 245 250 252 249 247 245 242 242 244 247 252 249 235 224 228 237 240 241 238 237 239 242 244 247 246 241 238 236 237 239 242 247 250 249 246 245 248 250 250 249 248 248 248 248 248 247 247 246 246 246 247 247 247 247 248 248 249 249 249 249 248 247 246 246 246 245 247 248
243 249 248 246 255 260 253 248 251 255 250 245 243 243 246 251 256 254 242 230 225 232 240 241 238 236 239 244 246 247 249 248 242 236 235 239 243 247 249 248 248 248 250 253 253 252 251 249 249 249 249 249 249 248 248 248 248 248 248 247 247 248 248 248 249 248 248 247 246 245 245 245 247 250
242 251 259 257 257 267 272 261 255 255 252 246 245 247 248 251 258 257 244 235 233 236 239 240 241 242 244 246 248 247 249 251 248 243 242 245 246 247 248 249 251 252 254 257 256 255 254 252 252 252 252 252 252 251 250 250 250 250 250 249 248 247 248 248 248 248 248 248 247 246 245 247 249 251
239 241 256 260 252 254 270 276 268 257 250 245 244 248 251 252 261 264 255 248 244 239 238 241 244 245 245 246 248 249 248 249 250 247 245 246 247 247 248 251 253 254 256 258 259 259 257 255 254 255 255 255 255 254 254 252 252 252 252 251 250 249 249 248 248 248 248 248 248 248 248 249 252 253
239 232 242 252 249 246 257 270 268 259 253 251 247 248 252 256 261 266 271 272 260 246 241 243 244 243 242 240 241 245 247 247 247 245 242 242 244 246 248 251 252 253 254 257 260 261 258 255 255 257 257 257 257 256 256 255 254 254 253 253 252 251 250 249 249 249 248 249 249 250 251 252 254 256
242 238 239 244 247 247 251 260 264 260 257 257 256 254 255 258 263 266 271 283 280 260 246 241 241 241 239 238 237 239 242 243 245 244 241 240 241 243 246 251 252 252 253 255 258 259 258 257 258 259 258 257 257 257 256 257 256 255 254 254 253 253 252 251 250 249 249 250 251 251 253 254 255 256
245 244 244 242 244 247 248 252 259 263 262 262 262 262 260 259 262 265 267 274 285 272 250 240 239 238 234 231 232 234 233 232 237 240 240 242 245 247 250 254 255 255 254 256 258 258 259 259 260 259 257 256 255 255 255 255 257 257 256 256 255 254 253 252 252 251 251 251 252 253 254 255 255 256
246 248 250 249 247 244 242 246 255 264 267 265 263 263 264 262 260 260 262 264 273 274 255 241 236 234 229 225 224 224 224 227 235 241 241 243 248 252 254 255 255 255 256 258 261 263 263 263 263 262 260 258 255 253 252 251 253 255 256 256 256 255 254 254 253 253 253 253 253 254 255 255 256 258
241 246 250 253 253 249 247 250 255 261 263 263 262 262 263 262 259 257 257 254 254 259 256 244 235 225 223 225 223 222 227 231 236 240 241 243 248 250 252 255 256 256 257 260 262 266 267 265 265 264 263 261 259 255 254 253 253 254 255 256 256 255 256 256 256 256 255 255 255 254 255 256 257 259
236 240 246 251 254 253 252 253 253 254 256 259 262 264 265 264 260 256 253 249 245 242 247 250 242 229 226 228 226 227 231 233 235 240 242 244 246 245 245 255 261 261 262 262 262 267 269 266 264 265 265 264 261 259 259 259 259 259 259 259 257 256 257 257 258 258 257 257 257 256 256 257 258 260
238 236 239 245 250 252 252 252 252 250 251 255 259 263 265 264 260 257 254 251 246 242 244 249 249 244 241 238 233 231 233 235 238 242 243 244 246 246 245 248 257 264 267 265 262 267 272 269 264 264 265 265 265 264 264 264 263 263 263 263 262 260 260 259 259 258 258 258 258 258 258 258 259 260
240 236 234 236 241 246 248 248 248 248 250 253 255 257 260 260 258 256 256 253 250 249 250 251 251 251 252 250 248 244 241 240 241 241 244 247 247 247 247 251 259 267 269 265 260 265 270 269 264 263 266 268 268 268 268 268 267 266 266 265 265 264 263 263 261 258 257 258 260 260 260 260 260 261
244 240 236 233 234 238 240 240 242 244 247 251 253 254 255 254 251 250 251 251 249 248 248 248 250 253 254 256 259 260 256 250 248 246 248 250 250 252 256 262 266 269 268 265 261 264 269 269 263 263 267 268 268 268 270 271 270 270 269 268 268 267 265 265 264 260 256 257 260 261 261 261 261 261
250 246 242 238 236 237 239 238 238 239 242 243 246 250 252 249 247 244 244 246 246 246 246 247 251 254 256 258 262 265 264 259 256 256 256 258 261 263 264 266 265 265 264 262 255 256 266 267 261 263 268 269 268 268 269 270 270 270 270 270 270 269 268 266 264 261 258 259 261 261 261 262 261 261
252 249 245 244 243 243 243 242 240 239 239 238 236 239 241 240 239 239 239 240 243 247 248 250 253 256 258 260 263 265 265 261 260 260 259 259 259 259 260 261 261 262 262 259 250 250 262 266 261 263 269 269 268 268 268 268 269 269 269 269 269 269 269 267 264 262 261 261 263 263 262 262 261 261
251 249 248 247 247 246 244 244 242 240 237 233 228 226 227 229 232 237 241 243 245 249 251 251 253 254 256 258 259 260 260 259 259 256 252 252 251 251 254 257 261 262 261 260 254 249 258 265 263 265 269 269 268 268 268 267 268 268 267 267 267 267 268 267 265 264 263 263 264 264 263 262 260 260
252 251 251 249 247 245 244 243 243 239 233 230 225 220 221 227 234 241 244 245 247 250 250 247 245 248 253 256 258 259 258 258 257 251 249 253 252 248 247 252 261 266 263 261 256 246 254 264 265 266 271 271 267 266 267 267 267 267 267 266 266 266 266 266 265 264 264 264 264 264 263 261 259 258
256 256 256 252 248 246 246 245 243 237 231 229 228 225 224 229 236 241 243 242 245 248 247 244 244 248 254 257 260 261 258 256 255 253 254 256 252 247 247 251 258 267 266 264 257 245 251 263 264 263 266 271 270 268 267 268 268 266 266 266 265 265 265 265 265 264 263 263 263 262 262 259 257 257
256 258 259 257 252 248 246 243 241 238 235 234 233 232 231 233 238 243 243 241 243 245 246 248 250 253 255 256 256 256 255 253 254 255 256 256 252 249 250 250 249 252 259 264 260 251 253 260 262 261 258 256 270 274 271 269 269 268 266 264 263 264 264 263 264 263 262 262 261 261 259 258 256 255
255 257 260 261 258 251 244 241 239 241 244 244 242 241 241 243 247 247 244 240 239 242 246 250 251 250 249 249 249 250 252 253 254 256 258 259 258 256 255 252 251 254 260 264 263 259 257 259 261 264 262 257 263 272 275 273 270 268 268 265 263 263 263 262 263 263 263 262 260 258 256 255 253 252
256 258 261 264 264 258 251 248 246 246 249 250 247 247 249 251 252 249 244 241 240 241 243 244 245 244 244 244 246 249 253 256 258 260 261 263 263 262 261 258 256 258 263 266 267 263 260 259 260 263 265 265 267 271 274 274 272 270 269 266 265 264 263 261 260 261 261 261 260 257 255 253 251 250
259 262 264 268 269 266 262 259 255 253 253 252 250 251 252 253 252 248 245 244 243 241 239 237 239 240 241 244 248 252 256 260 263 265 266 266 264 263 263 262 260 261 264 267 267 265 263 263 262 261 263 267 269 269 268 269 272 273 271 268 266 264 263 260 258 257 258 258 258 257 254 252 249 247
260 262 266 269 271 270 268 266 263 258 256 255 254 254 254 254 252 248 246 245 243 240 238 237 238 242 244 247 250 255 260 265 268 269 269 270 269 267 266 265 263 262 263 265 265 265 264 264 264 264 264 264 264 264 265 267 270 271 271 270 268 264 261 258 257 255 254 253 254 254 251 248 245 240
263 265 268 270 271 272 271 269 266 262 259 259 259 258 258 256 252 246 244 242 239 238 240 240 242 245 248 251 255 261 266 269 269 269 269 270 270 269 268 267 266 264 264 265 266 267 267 265 264 264 265 264 264 264 266 269 271 270 269 268 266 264 260 255 254 253 252 250 250 250 249 247 243 237
262 264 266 268 270 270 268 266 263 262 263 265 264 262 260 255 248 243 240 237 233 234 239 242 246 250 253 257 262 266 267 266 265 266 268 269 269 270 269 268 267 268 268 269 269 270 269 268 267 264 262 263 264 265 266 268 270 270 267 265 265 265 261 254 251 251 251 249 247 247 247 247 242 236
264 264 264 266 267 266 264 262 259 258 262 264 262 261 258 248 238 235 235 235 236 238 241 243 248 253 257 261 263 264 263 263 264 266 265 264 266 269 269 266 267 270 274 275 275 273 272 272 271 266 262 261 262 265 267 267 267 267 267 264 262 262 261 255 250 248 249 248 245 244 244 241 235 230
281 273 270 266 264 262 260 259 257 256 256 255 253 253 253 250 246 243 242 241 242 244 245 247 251 255 258 261 262 261 260 259 261 263 261 258 261 264 264 260 261 267 271 273 275 275 273 273 272 270 266 264 264 267 270 269 266 266 266 264 260 258 259 257 250 247 248 245 238 236 237 235 231 228
298 284 277 267 261 260 256 255 257 255 251 251 252 252 255 259 261 259 254 250 249 250 250 251 255 257 258 259 259 258 257 257 259 259 256 253 254 256 253 252 255 260 264 268 272 274 274 274 275 275 273 271 271 271 271 270 269 269 268 265 260 257 257 255 251 248 247 242 234 229 228 230 231 230
307 280 274 261 253 256 250 245 251 252 247 250 257 260 263 267 268 265 260 256 254 255 255 256 257 258 257 257 257 253 252 254 256 255 252 249 247 244 242 245 251 255 258 262 268 272 275 277 279 279 279 279 278 277 273 270 270 273 273 269 263 258 256 255 251 247 243 240 235 228 224 228 230 228
265 264 270 265 262 266 262 253 254 255 246 244 251 256 258 260 261 260 259 259 258 257 257 257 257 257 255 254 254 252 251 252 253 251 248 245 242 239 239 242 248 254 257 261 267 271 275 277 281 282 283 284 285 284 281 276 271 271 271 269 264 260 259 257 252 246 242 239 234 226 222 226 227 225
253 249 260 270 274 272 265 258 254 251 245 243 247 252 255 257 255 250 249 254 258 258 257 257 258 258 257 257 256 254 252 251 250 248 245 241 239 239 240 242 246 252 256 260 266 272 274 276 279 281 283 286 287 288 291 291 284 275 270 266 265 263 261 259 254 247 240 236 232 224 218 220 223 221
246 237 239 253 260 257 254 252 248 248 250 251 249 248 252 258 261 256 253 256 260 261 261 260 258 258 259 258 257 256 254 251 250 249 246 243 241 240 240 242 246 250 254 259 266 270 272 272 273 273 273 281 282 281 292 298 298 288 274 266 265 266 264 260 255 248 240 235 232 226 217 214 218 220
242 237 228 235 244 246 249 252 251 253 256 256 253 250 250 254 258 260 261 264 267 272 275 272 267 265 264 260 256 254 252 251 251 250 247 243 240 239 241 244 247 250 254 260 266 269 268 266 267 266 265 270 277 280 293 301 300 297 292 280 272 271 269 263 256 251 244 237 231 228 223 218 216 218
235 234 228 229 237 243 248 253 257 258 260 259 257 255 254 255 257 259 261 262 265 270 274 271 270 271 273 269 262 257 255 253 251 251 250 245 239 238 242 246 251 257 261 264 267 268 264 260 259 260 259 259 264 277 287 293 293 295 299 296 284 276 271 266 260 256 248 236 225 221 219 213 210 212
236 233 230 230 235 242 247 251 253 254 257 259 258 255 254 253 253 254 257 262 266 267 264 263 264 268 274 275 272 268 268 267 264 262 263 261 256 252 251 253 258 264 264 264 264 263 258 259 265 269 269 271 278 285 287 288 288 291 298 303 297 282 275 272 268 261 251 232 211 202 198 187 179 186
252 246 240 239 242 247 251 254 253 252 253 254 255 256 258 259 256 254 255 260 264 264 263 264 264 266 268 269 268 266 266 265 262 263 265 267 267 266 264 263 263 262 261 261 265 265 266 271 278 282 282 283 287 290 287 284 286 292 298 306 308 297 289 288 280 267 250 221 194 185 186 181 172 170
271 262 256 251 249 249 251 253 251 249 248 246 242 242 250 257 257 255 254 256 258 261 264 266 266 267 269 270 268 265 262 261 262 264 264 262 261 262 263 263 261 261 262 263 267 271 276 281 284 285 284 281 276 271 267 269 281 289 296 303 309 309 306 304 292 269 246 222 203 190 177 167 164 161
285 277 273 264 256 252 253 252 249 245 244 243 237 236 243 251 255 255 255 259 264 265 268 273 276 276 278 279 276 272 270 270 270 270 269 264 259 257 259 261 262 263 262 263 268 274 279 283 284 283 280 272 261 251 251 264 275 283 291 299 306 311 313 313 308 286 255 231 220 215 205 189 178 178
328 301 294 283 269 265 262 253 243 237 240 240 228 219 223 233 247 249 244 260 271 272 275 286 291 288 286 286 283 275 270 272 272 271 268 265 262 260 262 265 267 266 264 265 270 275 279 282 284 281 272 262 256 250 250 259 270 279 287 295 302 308 311 311 311 309 286 236 219 217 208 198 195 206
35 41 43 47 52 57 66 82 94 96 94 91 91 94 100 98 87 79 78 68 11 325 297 298 305 306 302 296 287 276 271 271 270 267 265 264 264 264 266 267 267 265 266 267 267 270 276 281 282 276 266 259 256 253 253 257 264 271 279 288 296 302 305 305 300 299 286 240 220 214 202 197 203 213